TimeCDT,TemperatureF,Dew PointF,Humidity,Sea Level PressureIn,VisibilityMPH,Wind Direction,Wind SpeedMPH,Gust SpeedMPH,PrecipitationIn,Events,Conditions,WindDirDegrees,DateUTC
12:15 AM,-0.4,-5.8,78,30.29,10.0,Calm,Calm,-,N/A,,Clear,0,2014-03-24 05:15:00
12:35 AM,-0.4,-4.0,85,30.28,10.0,SSW,4.6,-,N/A,,Clear,200,2014-03-24 05:35:00
12:55 AM,-0.4,-2.2,92,30.28,10.0,SSW,5.8,-,N/A,,Clear,210,2014-03-24 05:55:00
1:15 AM,-0.4,-2.2,92,30.28,10.0,SSW,4.6,-,N/A,,Clear,210,2014-03-24 06:15:00
1:34 AM,-0.4,-4.0,85,30.28,10.0,SW,4.6,-,N/A,,Clear,220,2014-03-24 06:34:00
1:55 AM,-0.4,-5.8,78,30.28,10.0,Calm,Calm,-,N/A,,Clear,0,2014-03-24 06:55:00
2:15 AM,-2.2,-4.0,92,30.27,10.0,SSW,6.9,-,N/A,,Clear,210,2014-03-24 07:15:00
2:34 AM,-0.4,-4.0,85,30.27,10.0,SW,5.8,-,N/A,,Clear,230,2014-03-24 07:34:00
2:55 AM,1.4,-2.2,85,30.26,10.0,WSW,4.6,-,N/A,,Clear,240,2014-03-24 07:55:00
3:15 AM,-0.4,-2.2,92,30.26,10.0,SW,4.6,-,N/A,,Clear,230,2014-03-24 08:15:00
3:34 AM,-0.4,-4.0,85,30.25,10.0,SW,3.5,-,N/A,,Clear,230,2014-03-24 08:34:00
3:55 AM,-2.2,-5.8,85,30.25,10.0,Calm,Calm,-,N/A,,Clear,0,2014-03-24 08:55:00
4:15 AM,-2.2,-5.8,85,30.25,10.0,Calm,Calm,-,N/A,,Clear,0,2014-03-24 09:15:00
4:35 AM,-2.2,-5.8,85,30.24,10.0,Calm,Calm,-,N/A,,Clear,0,2014-03-24 09:35:00
4:55 AM,-4.0,-7.6,85,30.24,10.0,Calm,Calm,-,N/A,,Clear,0,2014-03-24 09:55:00
5:15 AM,-2.2,-7.6,78,30.24,10.0,Calm,Calm,-,N/A,,Scattered Clouds,0,2014-03-24 10:15:00
5:35 AM,-2.2,-4.0,92,30.23,10.0,Calm,Calm,-,N/A,,Mostly Cloudy,0,2014-03-24 10:35:00
5:55 AM,1.4,-0.4,92,30.23,10.0,Calm,Calm,-,N/A,,Overcast,0,2014-03-24 10:55:00
6:15 AM,1.4,-0.4,92,30.22,10.0,Calm,Calm,-,N/A,,Overcast,0,2014-03-24 11:15:00
6:35 AM,3.2,-0.4,85,30.22,10.0,South,3.5,-,N/A,,Overcast,180,2014-03-24 11:35:00
6:55 AM,3.2,-0.4,85,30.22,10.0,SSW,3.5,-,N/A,,Overcast,200,2014-03-24 11:55:00
7:15 AM,3.2,-0.4,85,30.22,10.0,Calm,Calm,-,N/A,,Overcast,0,2014-03-24 12:15:00
7:35 AM,3.2,1.4,92,30.22,10.0,SW,3.5,-,N/A,,Overcast,230,2014-03-24 12:35:00
7:55 AM,5.0,1.4,85,30.21,10.0,SSW,3.5,-,N/A,,Overcast,210,2014-03-24 12:55:00
8:15 AM,6.8,3.2,85,30.21,10.0,SW,3.5,-,N/A,,Overcast,230,2014-03-24 13:15:00
8:35 AM,8.6,5.0,85,30.20,5.0,SW,4.6,-,N/A,Snow,Light Snow,220,2014-03-24 13:35:00
8:55 AM,8.6,6.8,92,30.20,10.0,WSW,4.6,-,N/A,,Mostly Cloudy,250,2014-03-24 13:55:00
9:15 AM,10.4,6.8,85,30.20,10.0,WSW,5.8,-,N/A,,Overcast,250,2014-03-24 14:15:00
9:35 AM,12.2,6.8,79,30.20,10.0,WSW,8.1,-,N/A,,Scattered Clouds,250,2014-03-24 14:35:00
9:55 AM,15.8,6.8,68,30.20,10.0,West,11.5,-,N/A,,Clear,270,2014-03-24 14:55:00
10:15 AM,17.6,6.8,63,30.19,10.0,WSW,9.2,-,N/A,,Clear,250,2014-03-24 15:15:00
10:35 AM,19.4,6.8,58,30.19,10.0,West,9.2,-,N/A,,Clear,260,2014-03-24 15:35:00
10:55 AM,19.4,5.0,54,30.19,10.0,WSW,9.2,-,N/A,,Clear,250,2014-03-24 15:55:00
11:15 AM,19.4,6.8,58,30.18,10.0,SW,9.2,-,N/A,,Clear,230,2014-03-24 16:15:00
11:35 AM,19.4,6.8,58,30.17,10.0,WSW,11.5,-,N/A,,Clear,240,2014-03-24 16:35:00
11:55 AM,21.2,8.6,58,30.18,10.0,West,15.0,19.6,N/A,,Clear,280,2014-03-24 16:55:00
12:15 PM,21.2,8.6,58,30.17,10.0,West,16.1,-,N/A,,Clear,270,2014-03-24 17:15:00
12:35 PM,23.0,10.4,59,30.17,10.0,West,15.0,-,N/A,,Clear,260,2014-03-24 17:35:00
12:55 PM,23.0,8.6,54,30.17,10.0,West,15.0,-,N/A,,Clear,270,2014-03-24 17:55:00
1:15 PM,24.8,10.4,54,30.16,10.0,West,16.1,-,N/A,,Clear,270,2014-03-24 18:15:00
1:35 PM,23.0,10.4,59,30.16,10.0,West,17.3,21.9,N/A,,Scattered Clouds,280,2014-03-24 18:35:00
1:55 PM,24.8,10.4,54,30.15,10.0,West,16.1,21.9,N/A,,Scattered Clouds,280,2014-03-24 18:55:00
2:15 PM,24.8,12.2,59,30.14,10.0,West,16.1,23.0,N/A,,Mostly Cloudy,280,2014-03-24 19:15:00
2:35 PM,24.8,12.2,59,30.13,10.0,West,15.0,20.7,N/A,,Mostly Cloudy,280,2014-03-24 19:35:00
2:55 PM,24.8,10.4,54,30.13,10.0,WNW,19.6,23.0,N/A,,Scattered Clouds,290,2014-03-24 19:55:00
3:15 PM,24.8,10.4,54,30.13,10.0,WNW,16.1,24.2,N/A,,Mostly Cloudy,290,2014-03-24 20:15:00
3:35 PM,24.8,12.2,59,30.13,10.0,WNW,16.1,20.7,N/A,,Mostly Cloudy,300,2014-03-24 20:35:00
3:55 PM,24.8,10.4,54,30.13,10.0,WNW,19.6,27.6,N/A,,Scattered Clouds,300,2014-03-24 20:55:00
4:15 PM,24.8,10.4,54,30.13,10.0,NW,15.0,19.6,N/A,,Scattered Clouds,320,2014-03-24 21:15:00
4:35 PM,24.8,12.2,59,30.13,10.0,NW,19.6,23.0,N/A,,Scattered Clouds,320,2014-03-24 21:35:00
4:54 PM,23.0,12.2,63,30.13,10.0,NNW,16.1,23.0,N/A,,Scattered Clouds,330,2014-03-24 21:54:00
5:15 PM,21.2,10.4,63,30.13,10.0,NW,13.8,-,N/A,,Scattered Clouds,320,2014-03-24 22:15:00
5:35 PM,21.2,10.4,63,30.13,10.0,NNW,15.0,-,N/A,,Scattered Clouds,330,2014-03-24 22:35:00
5:55 PM,17.6,8.6,68,30.15,10.0,NNW,17.3,-,N/A,,Overcast,330,2014-03-24 22:55:00
6:15 PM,17.6,8.6,68,30.15,10.0,NNW,16.1,-,N/A,,Overcast,340,2014-03-24 23:15:00
6:35 PM,15.8,6.8,68,30.15,4.0,NNW,16.1,-,N/A,,Haze,330,2014-03-24 23:35:00
6:55 PM,15.8,6.8,68,30.15,10.0,NNW,18.4,-,N/A,,Mostly Cloudy,340,2014-03-24 23:55:00
7:15 PM,14.0,5.0,67,30.15,10.0,NNW,16.1,-,N/A,,Scattered Clouds,340,2014-03-25 00:15:00
7:35 PM,12.2,3.2,67,30.15,10.0,NNW,11.5,-,N/A,,Scattered Clouds,340,2014-03-25 00:35:00
7:55 PM,10.4,1.4,67,30.15,10.0,NNW,10.4,-,N/A,,Scattered Clouds,330,2014-03-25 00:55:00
8:15 PM,8.6,1.4,73,30.16,10.0,NW,8.1,-,N/A,,Clear,320,2014-03-25 01:15:00
8:35 PM,8.6,1.4,73,30.16,10.0,NW,9.2,-,N/A,,Scattered Clouds,320,2014-03-25 01:35:00
8:55 PM,8.6,1.4,73,30.17,10.0,NNW,13.8,-,N/A,,Clear,330,2014-03-25 01:55:00
9:15 PM,8.6,-0.4,67,30.17,10.0,NW,13.8,-,N/A,,Clear,320,2014-03-25 02:15:00
9:35 PM,6.8,-2.2,67,30.18,10.0,NW,10.4,18.4,N/A,,Clear,320,2014-03-25 02:35:00
9:55 PM,6.8,-2.2,67,30.19,10.0,NNW,16.1,-,N/A,,Clear,330,2014-03-25 02:55:00
10:15 PM,6.8,-4.0,61,30.19,10.0,NNW,12.7,20.7,N/A,,Clear,330,2014-03-25 03:15:00
10:35 PM,6.8,-4.0,61,30.20,10.0,NNW,18.4,23.0,N/A,,Clear,330,2014-03-25 03:35:00
10:55 PM,6.8,-4.0,61,30.20,10.0,NNW,16.1,-,N/A,,Clear,330,2014-03-25 03:55:00
11:15 PM,6.8,-4.0,61,30.20,10.0,NNW,16.1,21.9,N/A,,Clear,330,2014-03-25 04:15:00
11:35 PM,6.8,-4.0,61,30.20,10.0,NNW,16.1,-,N/A,,Clear,330,2014-03-25 04:35:00
11:55 PM,6.8,-2.2,67,30.21,10.0,NW,13.8,-,N/A,,Mostly Cloudy,320,2014-03-25 04:55:00